Regional Weather Roundup
Issued by NWS Kansas City/Pleasant Hill, MO

Home | Current Version | Previous Version | Graphics & Text | Print | Product List | Glossary Off
Versions: 1 2 3 4 5 6 7 8 9 10 11 12 13 14 15 16 17 18 19 20 21 22 23 24 25 26 27

000
ASUS43 KEAX 261910
RWREAX

WEATHER ROUNDUP FOR EASTERN KANSAS AND NORTHWEST MISSOURI
NATIONAL WEATHER SERVICE KANSAS CITY/PLEASANT HILL MO
200 PM CDT SUN MAR 26 2017

KSZ040-057-103>105-MOZ028-029-037-043-262000-
...KANSAS CITY METROPOLITAN AREA...

CITY           SKY/WX    TMP DP  RH WIND       PRES   REMARKS
K.C. INTL      CLOUDY    50  44  80 W7        29.93S
K.C. DOWNTOWN  CLOUDY    51  43  74 W3        29.92F
LEES SUMMIT    CLOUDY    53  44  71 SW10      29.92F
OLATHE - IXD   CLOUDY    50  44  80 SW6       29.92F
OLATHE - OJC   CLOUDY    49  44  83 W6        29.92F
LAWRENCE       CLOUDY    51  44  77 VRB5      29.93F

$$

MOZ001>008-011>017-020>025-030>033-038>040-044>046-053-054-262000-
...NORTHERN AND CENTRAL MISSOURI...

CITY           SKY/WX    TMP DP  RH WIND       PRES   REMARKS
ST. JOSEPH     CLOUDY    49  43  80 W7G20     29.93S
MOSBY          CLOUDY    50  43  76 W9        29.92F
WARRENSBURG    CLOUDY    52  45  76 SW9       29.93S
WHITEMAN AFB   CLOUDY    54  51  90 W9        29.92S
CLINTON        CLOUDY    54  46  76 SW8       29.94S
SEDALIA        CLOUDY    55  48  77 SW8       29.93F
WARSAW         NOT AVBL
CHILLICOTHE      N/A     50  43  77 W9        29.93S
KIRKSVILLE     CLOUDY    48  44  86 W10       29.90S

$$

MOZ041-047>049-056>058-063>065-088>090-097-262000-
...EASTERN AND SOUTHERN MISSOURI...

CITY           SKY/WX    TMP DP  RH WIND       PRES   REMARKS
ST. LOUIS INTL CLOUDY    60  49  66 SW12      29.90S
SPIRIT OF STL  CLOUDY    59  51  75 W12       29.89S
COLUMBIA       CLOUDY    57  51  80 SW9       29.91F
JEFFERSON CITY CLOUDY    57  49  74 W8        29.92S
ROLLA          CLOUDY    59  50  72 SW13      29.90S
OSAGE BEACH    CLOUDY   N/A N/A N/A W12       29.93F
SPRINGFIELD    MOSUNNY   62  50  64 SW9       29.91F
BRANSON        PTSUNNY   64  48  55 SW8       29.94F
JOPLIN         MOSUNNY   65  49  56 SW8       29.91F
WEST PLAINS    MOSUNNY   60  48  64 SE7       29.94F

$$

IAZ060-094-KSZ022-034>040-054-083-096-NEZ052-066-093-262000-
...KANSAS...SOUTHEAST NEBRASKA AND IOWA...

CITY           SKY/WX    TMP DP  RH WIND       PRES   REMARKS
TOPEKA         CLOUDY    51  45  79 W5        29.92F
MANHATTAN      CLOUDY    50  44  80 CALM      29.91F
EMPORIA        CLOUDY    50  46  86 E6        29.90F
CHANUTE        MOSUNNY   56  46  69 VRB3      29.90F
WICHITA        CLOUDY    57  47  69 E14       29.82F
OMAHA          CLOUDY    47  40  76 NW7       29.92F
LINCOLN        CLOUDY    46  42  86 N7        29.94F
FALLS CITY     CLOUDY    47  42  83 N6        29.92F
LAMONI         CLOUDY    47  42  83 W12       29.89S
DES MOINES     CLOUDY    47  43  86 W12       29.89R

$$





USA.gov is the U.S. government's official web portal to all federal, state and local government web resources and services.